Weather History for KCVX - November, 2013

Change the Weather History Date:

Sunday, November 10, 2013

  Actual Average Record
Temperature  
Mean Temperature 40 °F -  
Max Temperature 43 °F 44 °F 60 °F (2002)
Min Temperature 38 °F 39 °F 29 °F (2014)
Degree Days  
Heating Degree Days 25    
Moisture  
Dew Point 32 °F    
Average Humidity 73    
Maximum Humidity 88    
Minimum Humidity 63    
Precipitation  
Precipitation 0.00 in - - ()
Sea Level Pressure  
Sea Level Pressure 30.06 in    
Wind  
Wind Speed 23 mph (WNW)    
Max Wind Speed 31 mph    
Max Gust Speed 40 mph    
Visibility 10 miles    
Events Rain    
Averages and records for this station are not official NWS values.
T = Trace of Precipitation, MM = Missing Value Source: NWS Daily Summary

Daily Weather History Graph

Daily Weather History Graph

Search for Another Location

Airport or City:

Trip Planner

Search our weather history database for the weather conditions in past years. The results will help you decide how hot, cold, wet, or windy it might be!

Date:

Astronomy

Nov. 10, 2013 Rise Set
Actual Time 7:33 AM EST 5:16 PM EST
Civil Twilight 7:01 AM EST 5:48 PM EST
Nautical Twilight 6:26 AM EST 6:23 PM EST
Astronomical Twilight 5:51 AM EST 6:58 PM EST
Moon 1:39 PM EST (11/10) No Moon Set
Length of Visible Light 10h 46m
Length of Day
9h 43m
First Quarter, 55% of the Moon is Illuminated
Nov 10
First Quarter
Nov 17
Full
Nov 25
Last Quarter
Dec 2
New
Dec 9
First Quarter

Hourly Weather History & Observations

Time (EST) Temp. Windchill Dew Point Humidity Pressure Visibility Wind Dir Wind Speed Gust Speed Precip Events Conditions
12:15 AM 42.6 °F 31.9 °F 33.1 °F 69% 29.80 in 10.0 mi West 31.1 mph 38.0 mph N/A   Overcast
12:34 AM 42.4 °F 31.6 °F 33.3 °F 70% 29.81 in 10.0 mi West 31.1 mph 40.3 mph N/A   Overcast
12:54 AM 42.6 °F 32.2 °F 33.8 °F 71% 29.81 in 10.0 mi West 28.8 mph 34.5 mph N/A   Overcast
1:15 AM 42.4 °F 31.6 °F 33.8 °F 71% 29.82 in 10.0 mi West 31.1 mph 38.0 mph N/A   Overcast
1:34 AM 42.3 °F 32.2 °F 33.8 °F 72% 29.82 in 10.0 mi West 26.5 mph 36.8 mph N/A   Overcast
1:54 AM 42.3 °F 31.8 °F 33.6 °F 71% 29.82 in 10.0 mi WNW 28.8 mph 38.0 mph N/A   Overcast
2:15 AM 42.3 °F 31.9 °F 34.0 °F 72% 29.82 in 10.0 mi West 27.6 mph 36.8 mph N/A   Overcast
2:34 AM 42.3 °F 31.4 °F 34.7 °F 75% 29.82 in 10.0 mi West 31.1 mph 34.5 mph N/A   Overcast
2:55 AM 42.1 °F 31.5 °F 34.7 °F 75% 29.83 in 10.0 mi WNW 28.8 mph 34.5 mph N/A   Overcast
3:15 AM 42.1 °F 32.6 °F 34.3 °F 74% 29.84 in 10.0 mi WNW 23.0 mph 35.7 mph N/A   Overcast
3:34 AM 42.1 °F 32.6 °F 34.5 °F 75% 29.85 in 10.0 mi WNW 23.0 mph 35.7 mph N/A   Overcast
3:55 AM 41.9 °F 31.3 °F 34.3 °F 75% 29.86 in 10.0 mi WNW 28.8 mph 39.1 mph N/A   Overcast
4:14 AM 41.9 °F 31.7 °F 34.3 °F 75% 29.87 in 10.0 mi WNW 26.5 mph 36.8 mph N/A   Overcast
4:34 AM 41.9 °F 31.3 °F 34.7 °F 76% 29.87 in 10.0 mi West 28.8 mph 33.4 mph N/A   Overcast
4:55 AM 40.8 °F 30.9 °F 35.2 °F 80% 29.89 in 7.0 mi WNW 23.0 mph 36.8 mph N/A Rain Light Rain
5:14 AM 41.0 °F 30.0 °F 35.4 °F 81% 29.89 in 10.0 mi WNW 28.8 mph 34.5 mph N/A   Overcast
5:34 AM 40.1 °F 29.9 °F 36.1 °F 86% 29.91 in 7.0 mi WNW 23.0 mph 34.5 mph N/A Rain Light Rain
5:55 AM 40.1 °F 29.7 °F 36.7 °F 88% 29.93 in 10.0 mi WNW 24.2 mph 33.4 mph N/A   Overcast
6:14 AM 40.1 °F 30.2 °F 35.4 °F 83% 29.94 in 7.0 mi NW 21.9 mph 34.5 mph N/A   Overcast
6:34 AM 39.2 °F 29.6 °F 36.0 °F 88% 29.95 in 5.0 mi NW 19.6 mph 32.2 mph N/A Rain Light Rain
6:55 AM 39.6 °F 28.7 °F 35.4 °F 85% 29.97 in 10.0 mi NW 25.3 mph 33.4 mph N/A Rain Light Rain
7:14 AM 39.4 °F 29.2 °F 34.3 °F 82% 29.98 in 10.0 mi NW 21.9 mph 33.4 mph N/A   Mostly Cloudy
7:34 AM 39.6 °F 28.1 °F 33.6 °F 79% 30.00 in 10.0 mi NW 28.8 mph 38.0 mph N/A   Mostly Cloudy
7:55 AM 39.7 °F 29.2 °F 33.8 °F 79% 30.02 in 10.0 mi NW 24.2 mph 32.2 mph N/A   Overcast
8:14 AM 39.2 °F 28.7 °F 33.1 °F 79% 30.04 in 10.0 mi NW 23.0 mph 38.0 mph N/A   Overcast
8:35 AM 39.6 °F 30.0 °F 33.3 °F 78% 30.05 in 10.0 mi NW 19.6 mph 29.9 mph N/A   Overcast
8:55 AM 40.1 °F 30.5 °F 33.1 °F 76% 30.07 in 10.0 mi NW 20.7 mph 31.1 mph N/A   Mostly Cloudy
9:14 AM 39.6 °F 29.2 °F 32.0 °F 74% 30.08 in 10.0 mi NW 23.0 mph 36.8 mph N/A   Mostly Cloudy
9:35 AM 39.7 °F 30.0 °F 32.0 °F 74% 30.09 in 10.0 mi NNW 20.7 mph 38.0 mph N/A   Mostly Cloudy
9:54 AM 40.6 °F 30.4 °F 31.8 °F 71% 30.10 in 10.0 mi NNW 24.2 mph 35.7 mph N/A   Mostly Cloudy
10:14 AM 39.6 °F 30.0 °F 32.4 °F 75% 30.12 in 5.0 mi NW 19.6 mph 32.2 mph N/A   Unknown
10:35 AM 40.1 °F 29.9 °F 31.1 °F 70% 30.13 in 10.0 mi NW 23.0 mph 32.2 mph N/A   Overcast
10:54 AM 40.1 °F 29.9 °F 32.2 °F 73% 30.14 in 10.0 mi NW 23.0 mph 28.8 mph N/A   Overcast
11:15 AM 41.4 °F 31.9 °F 32.5 °F 71% 30.14 in 10.0 mi NW 21.9 mph 28.8 mph N/A   Overcast
11:34 AM 40.5 °F 30.7 °F 32.2 °F 72% 30.16 in 10.0 mi NW 21.9 mph 31.1 mph N/A   Overcast
11:54 AM 38.3 °F 27.8 °F 33.4 °F 83% 30.17 in 10.0 mi NW 21.9 mph 32.2 mph N/A   Overcast
12:15 PM 39.7 °F 30.6 °F 32.7 °F 76% 30.17 in 10.0 mi NW 18.4 mph 25.3 mph N/A   Overcast
12:34 PM 40.1 °F 30.5 °F 31.3 °F 71% 30.17 in 10.0 mi NW 20.7 mph 29.9 mph N/A   Overcast
12:54 PM 40.3 °F 31.3 °F 29.7 °F 66% 30.17 in 10.0 mi NW 18.4 mph 31.1 mph N/A   Overcast
1:15 PM 40.3 °F 31.0 °F 30.7 °F 69% 30.17 in 10.0 mi NW 19.6 mph 27.6 mph N/A   Overcast
1:34 PM 40.5 °F 31.8 °F 29.5 °F 65% 30.17 in 10.0 mi NW 17.3 mph 28.8 mph N/A   Overcast
1:54 PM 40.5 °F 32.1 °F 30.0 °F 66% 30.17 in 10.0 mi NW 16.1 mph 20.7 mph N/A   Overcast
2:15 PM 40.1 °F 32.4 °F 30.2 °F 68% 30.18 in 10.0 mi WNW 13.8 mph 21.9 mph N/A   Overcast
2:34 PM 40.1 °F 32.0 °F 31.6 °F 72% 30.19 in 10.0 mi WNW 15.0 mph 25.3 mph N/A   Overcast
2:55 PM 40.3 °F 31.6 °F 31.6 °F 71% 30.19 in 10.0 mi WNW 17.3 mph 25.3 mph N/A   Overcast
3:14 PM 39.2 °F 30.8 °F 31.6 °F 74% 30.20 in 10.0 mi NW 15.0 mph 20.7 mph N/A   Overcast
3:34 PM 39.7 °F 31.9 °F 30.4 °F 69% 30.20 in 10.0 mi WNW 13.8 mph 21.9 mph N/A   Overcast
3:55 PM 40.3 °F 32.6 °F 30.2 °F 67% 30.20 in 10.0 mi WNW 13.8 mph 19.6 mph N/A   Overcast
4:14 PM 40.1 °F 32.4 °F 29.1 °F 65% 30.20 in 10.0 mi West 13.8 mph 19.6 mph N/A   Overcast
4:35 PM 40.3 °F 31.6 °F 29.5 °F 65% 30.20 in 10.0 mi WNW 17.3 mph 23.0 mph N/A   Overcast
4:55 PM 40.3 °F 32.2 °F 29.1 °F 64% 30.20 in 10.0 mi West 15.0 mph - N/A   Overcast
5:14 PM 40.1 °F 32.4 °F 29.3 °F 65% 30.20 in 10.0 mi West 13.8 mph - N/A   Overcast
5:35 PM 39.7 °F 31.9 °F 28.0 °F 63% 30.19 in 10.0 mi West 13.8 mph 17.3 mph N/A   Overcast
5:55 PM 40.1 °F 32.7 °F 29.1 °F 65% 30.20 in 10.0 mi West 12.7 mph - N/A   Overcast
6:14 PM 40.1 °F 32.4 °F 28.4 °F 63% 30.19 in 10.0 mi West 13.8 mph 17.3 mph N/A   Overcast
6:35 PM 40.5 °F 32.1 °F 29.8 °F 66% 30.19 in 10.0 mi West 16.1 mph 20.7 mph N/A   Overcast
6:54 PM 40.6 °F 33.4 °F 29.5 °F 64% 30.19 in 10.0 mi West 12.7 mph 20.7 mph N/A   Overcast
7:14 PM 40.5 °F 34.1 °F 29.5 °F 65% 30.19 in 10.0 mi WSW 10.4 mph 21.9 mph N/A   Overcast
7:34 PM 40.1 °F 34.7 °F 29.8 °F 67% 30.18 in 10.0 mi WSW 8.1 mph - N/A   Scattered Clouds
7:54 PM 40.1 °F 36.1 °F 30.2 °F 68% 30.17 in 10.0 mi SW 5.8 mph - N/A   Scattered Clouds
8:15 PM 40.3 °F 35.5 °F 30.7 °F 69% 30.16 in 10.0 mi SW 6.9 mph - N/A   Scattered Clouds
8:34 PM 39.6 °F 36.3 °F 31.1 °F 72% 30.16 in 10.0 mi South 4.6 mph - N/A   Clear
8:54 PM 39.2 °F 35.9 °F 31.8 °F 75% 30.15 in 10.0 mi SSW 4.6 mph - N/A   Scattered Clouds
9:15 PM 40.3 °F 35.5 °F 32.0 °F 72% 30.15 in 10.0 mi SW 6.9 mph - N/A   Scattered Clouds
9:34 PM 41.4 °F 35.2 °F 32.2 °F 70% 30.14 in 10.0 mi SSW 10.4 mph - N/A   Mostly Cloudy
9:54 PM 41.0 °F 35.2 °F 32.9 °F 73% 30.13 in 10.0 mi SSW 9.2 mph - N/A   Mostly Cloudy
10:14 PM 41.0 °F 34.7 °F 33.1 °F 73% 30.12 in 10.0 mi SW 10.4 mph - N/A   Mostly Cloudy
10:34 PM 41.5 °F 35.9 °F 33.4 °F 73% 30.11 in 10.0 mi SW 9.2 mph 18.4 mph N/A   Mostly Cloudy
10:55 PM 41.9 °F 35.0 °F 33.1 °F 71% 30.10 in 10.0 mi SW 12.7 mph 16.1 mph N/A   Overcast
11:14 PM 41.9 °F 36.9 °F 33.4 °F 72% 30.09 in 10.0 mi SW 8.1 mph - N/A   Overcast
11:34 PM 41.9 °F 36.3 °F 33.8 °F 73% 30.08 in 10.0 mi SSW 9.2 mph - N/A   Overcast
11:55 PM 41.4 °F 36.2 °F 34.3 °F 76% 30.07 in 10.0 mi SSW 8.1 mph - N/A   Overcast